FW2402 Weather Reports


time (UTC)temp
C
wind
direction
speed
KPH
gust
KPH
rain 1hr
cm
rain 24hr
cm
rain mn
cm
humidity
%
barometer
mb
20260904172524 30 165 4.8 12.9 0.00 1.22 0.00 79 1014.8
20260904172023 30 95 1.6 11.3 0.00 1.22 0.00 79 1014.9
20260904171546 31 0 3.2 11.3 0.00 1.22 0.00 81 1014.9
20260904171022 30 128 3.2 9.7 0.00 1.22 0.00 78 1014.8
20260904170522 31 192 3.2 9.7 0.00 1.22 0.00 74 1015.0
20260904170041 32 0 1.6 11.3 0.00 1.22 0.00 75 1015.0
20260904165524 31 126 3.2 11.3 0.00 1.22 0.00 78 1015.0
20260904165025 31 157 3.2 9.7 0.00 1.22 0.00 80 1015.1
20260904164540 31 160 1.6 8.0 0.00 1.22 0.00 76 1015.2
20260904164024 32 188 1.6 9.7 0.00 1.22 0.00 75 1015.4
20260904163524 32 148 1.6 9.7 0.00 1.22 0.00 77 1015.4
20260904163046 32 229 0.0 6.4 0.00 1.22 0.00 80 1015.4
20260904162523 31 112 1.6 8.0 0.00 1.22 0.00 78 1015.5
20260904162023 31 169 3.2 9.7 0.00 1.22 0.00 76 1015.5
20260904161540 31 135 1.6 9.7 0.00 1.22 0.00 81 1015.6
20260904161028 30 261 1.6 6.4 0.00 1.22 0.00 77 1015.6
20260904160525 30 241 0.0 6.4 0.00 1.22 0.00 80 1015.6
20260904160047 29 0 0.0 9.7 0.00 1.22 0.00 81 1015.7
20260904155525 30 223 3.2 9.7 0.00 1.22 0.00 79 1015.7
20260904155024 29 0 0.0 8.0 0.00 1.22 0.00 83 1015.7
20260904154550 29 0 1.6 12.9 0.00 1.22 0.00 81 1015.9
20260904154024 30 126 3.2 12.9 0.00 1.22 0.00 81 1015.8
20260904153525 30 161 4.8 14.5 0.00 1.22 0.00 82 1015.7
20260904153047 30 0 3.2 14.5 0.00 1.22 0.00 81 1015.6
20260904152523 30 126 4.8 11.3 0.00 1.22 0.00 83 1015.5
20260904152022 30 131 1.6 9.7 0.00 1.22 0.00 83 1015.5
20260904151543 30 0 3.2 9.7 0.00 1.22 0.00 85 1015.5
20260904151018 30 288 1.6 11.3 0.00 1.22 0.00 84 1015.4
20260904150519 30 177 3.2 11.3 0.00 1.22 0.00 85 1015.4
20260904150050 29 182 1.6 12.9 0.00 1.22 0.00 83 1015.2
20260904145523 29 171 4.8 12.9 0.00 1.22 0.00 86 1015.2
20260904145023 29 164 1.6 9.7 0.00 1.22 0.00 87 1015.2
20260904144547 29 167 1.6 14.5 0.00 1.22 0.00 88 1015.2
20260904144024 28 153 1.6 14.5 0.00 1.22 0.00 88 1015.3
20260904143528 28 0 1.6 11.3 0.00 1.22 0.00 87 1015.3
20260904143044 28 163 3.2 11.3 0.00 1.22 0.00 88 1015.2
20260904142524 28 0 1.6 6.4 0.00 1.22 0.00 89 1015.3
20260904142024 28 0 0.0 11.3 0.00 1.22 0.00 88 1015.2
20260904141551 28 0 3.2 11.3 0.00 1.22 0.00 90 1015.2
20260904141032 27 171 3.2 8.0 0.00 1.22 0.00 90 1015.3
20260904140527 27 109 1.6 8.0 0.00 1.22 0.00 91 1015.2
20260904135524 27 0 1.6 9.7 0.00 1.22 0.00 93 1015.3
20260904135025 27 85 3.2 9.7 0.00 1.22 0.00 93 1015.2
20260904134609 27 144 3.2 9.7 0.00 1.22 0.00 93 1015.3
20260904134024 27 71 3.2 9.7 0.00 1.22 0.00 93 1015.2
20260904133520 26 167 1.6 9.7 0.00 1.22 0.00 94 1015.2
20260904133046 26 0 3.2 9.7 0.00 1.22 0.00 95 1015.2
20260904132523 26 0 0.0 8.0 0.00 1.22 0.00 95 1015.1
20260904132020 26 143 3.2 8.0 0.00 1.22 0.00 95 1015.0
20260904131541 26 125 1.6 6.4 0.00 1.22 0.00 96 1015.0
20260904131024 26 118 3.2 8.0 0.00 1.22 0.00 96 1014.9
20260904130524 25 120 3.2 8.0 0.00 1.22 0.00 96 1015.0
20260904130048 25 180 1.6 6.4 0.00 1.22 0.00 97 1015.0
20260904125529 25 155 3.2 9.7 0.00 1.22 0.00 97 1014.9
20260904125024 25 124 4.8 9.7 0.00 1.22 0.00 97 1014.9
20260904124543 25 147 3.2 8.0 0.00 1.22 0.00 97 1014.9
20260904124019 25 148 1.6 6.4 0.00 1.22 0.00 97 1014.9
20260904123525 25 130 1.6 4.8 0.00 1.22 0.00 97 1014.8
20260904123041 25 83 1.6 6.4 0.00 1.22 0.00 97 1015.0
20260904122526 24 86 0.0 6.4 0.00 1.22 0.00 97 1014.9
20260904122023 24 0 1.6 6.4 0.00 1.22 0.00 97 1014.8
20260904121552 24 127 3.2 6.4 0.00 1.22 0.00 97 1014.5
20260904121025 24 120 1.6 4.8 0.00 1.22 0.00 97 1014.5
20260904120526 23 105 1.6 4.8 0.00 1.22 0.00 97 1014.5
20260904120050 23 108 1.6 3.2 0.00 1.22 0.00 97 1014.4
20260904115525 23 0 0.0 0.0 0.00 1.22 0.00 97 1014.4
20260904115024 23 0 0.0 0.0 0.00 1.22 0.00 97 1014.3
20260904114544 23 0 0.0 0.0 0.00 1.22 0.00 97 1014.4
20260904114028 23 0 0.0 0.0 0.00 1.22 0.00 97 1014.3
20260904113523 23 0 0.0 0.0 0.00 1.22 0.00 97 1014.3
20260904113042 23 0 0.0 0.0 0.00 1.22 0.00 97 1014.1
20260904112520 23 0 0.0 0.0 0.00 1.22 0.00 97 1014.1
20260904112024 23 0 0.0 0.0 0.00 1.22 0.00 97 1014.1
20260904111543 23 0 0.0 0.0 0.00 1.22 0.00 97 1014.2
20260904111024 23 0 0.0 0.0 0.00 1.22 0.00 97 1014.2
20260904110525 23 0 0.0 0.0 0.00 1.22 0.00 97 1014.2
20260904110047 23 0 0.0 0.0 0.00 1.22 0.00 97 1014.1
20260904105525 23 0 0.0 0.0 0.00 1.22 0.00 97 1014.1
20260904105024 23 0 0.0 0.0 0.00 1.22 0.00 97 1014.0
20260904104544 22 0 0.0 0.0 0.00 1.22 0.00 97 1013.8
20260904104019 22 0 0.0 0.0 0.00 1.22 0.00 97 1013.8
20260904103526 22 0 0.0 0.0 0.00 1.22 0.00 97 1013.9
20260904103041 22 0 0.0 0.0 0.00 1.22 0.00 97 1013.8
20260904102525 22 0 0.0 0.0 0.00 1.22 0.00 97 1013.8
20260904102023 22 0 0.0 0.0 0.00 1.22 0.00 97 1013.8
20260904101539 22 0 0.0 0.0 0.00 1.22 0.00 97 1013.6
20260904101024 22 0 0.0 0.0 0.00 1.22 0.00 97 1013.6
20260904100524 23 0 0.0 0.0 0.00 1.22 0.00 97 1013.6
20260904100049 22 0 0.0 0.0 0.00 1.22 0.00 97 1013.6
20260904095524 23 0 0.0 0.0 0.00 1.22 0.00 96 1013.6
20260904095021 23 0 0.0 0.0 0.00 1.22 0.00 97 1013.6
20260904094552 23 0 0.0 0.0 0.00 1.22 0.00 96 1013.5
20260904094019 23 0 0.0 0.0 0.00 1.22 0.00 97 1013.5
20260904093519 23 0 0.0 0.0 0.00 1.22 0.00 96 1013.4
20260904093039 23 0 0.0 0.0 0.00 1.22 0.00 96 1013.5
20260904092525 23 0 0.0 0.0 0.00 1.22 0.00 96 1013.5
20260904092024 23 0 0.0 0.0 0.00 1.22 0.00 96 1013.4
20260904091547 23 0 0.0 0.0 0.00 1.22 0.00 96 1013.4
20260904091021 23 0 0.0 0.0 0.00 1.22 0.00 96 1013.3
20260904090521 23 0 0.0 0.0 0.00 1.22 0.00 96 1013.3
20260904090053 23 0 0.0 0.0 0.00 1.22 0.00 96 1013.3
20260904085523 23 0 0.0 0.0 0.00 1.22 0.00 96 1013.5
20260904085024 23 0 0.0 0.0 0.00 1.22 0.00 96 1013.4
20260904084546 23 0 0.0 0.0 0.00 1.22 0.00 96 1013.3
20260904084025 23 0 0.0 0.0 0.00 1.22 0.00 96 1013.3
20260904083526 23 0 0.0 0.0 0.00 1.22 0.00 96 1013.3
20260904083123 23 0 0.0 0.0 0.00 1.22 0.00 96 1013.2
20260904082524 23 0 0.0 0.0 0.00 1.22 0.00 96 1013.3
20260904082023 23 0 0.0 0.0 0.00 1.22 0.00 96 1013.3
20260904081543 23 0 0.0 0.0 0.00 1.22 0.00 96 1013.3
20260904081023 23 0 0.0 0.0 0.00 1.22 0.00 96 1013.3
20260904080521 23 0 0.0 0.0 0.00 1.22 0.00 96 1013.3
20260904080045 23 0 0.0 0.0 0.00 1.22 0.00 96 1013.3
20260904075522 23 0 0.0 0.0 0.00 1.22 0.00 96 1013.3
20260904075027 23 0 0.0 0.0 0.00 1.22 0.00 96 1013.2
20260904074541 23 0 0.0 0.0 0.00 1.22 0.00 96 1013.3
20260904074025 23 0 0.0 0.0 0.00 1.22 0.00 96 1013.3
20260904073524 23 0 0.0 0.0 0.00 1.22 0.00 96 1013.2
20260904073040 23 0 0.0 0.0 0.00 1.22 0.00 96 1013.2
20260904072523 23 0 0.0 0.0 0.00 1.22 0.00 96 1013.2
20260904072030 23 0 0.0 0.0 0.00 1.22 0.00 96 1013.3
20260904071601 23 0 0.0 0.0 0.00 1.22 0.00 96 1013.1
20260904071020 23 0 0.0 0.0 0.00 1.22 0.00 96 1013.1
20260904070524 23 0 0.0 0.0 0.00 1.22 0.00 96 1013.2
20260904070108 23 0 0.0 0.0 0.00 1.22 0.00 96 1013.1
20260904065521 23 0 0.0 0.0 0.00 1.22 0.00 96 1013.3
20260904065028 23 0 0.0 0.0 0.00 1.22 0.00 96 1013.3
20260904064550 23 0 0.0 0.0 0.00 1.22 0.00 96 1013.1
20260904064021 23 0 0.0 0.0 0.00 1.22 0.00 96 1013.1
20260904063524 23 0 0.0 0.0 0.00 1.22 0.00 96 1013.1
20260904063100 23 0 0.0 0.0 0.00 1.22 0.00 96 1013.2
20260904062524 23 0 0.0 0.0 0.00 1.22 0.00 96 1013.3
20260904062019 23 0 0.0 0.0 0.00 1.22 0.00 96 1013.4
20260904061542 23 0 0.0 0.0 0.00 1.22 0.00 96 1013.6
20260904061019 23 0 0.0 0.0 0.00 1.22 0.00 96 1013.6
20260904060522 23 0 0.0 0.0 0.00 1.22 0.00 96 1013.7
20260904060042 23 0 0.0 0.0 0.00 1.22 0.00 96 1013.6
20260904055525 23 0 0.0 0.0 0.00 1.22 0.00 96 1013.7
20260904055025 23 0 0.0 0.0 0.00 1.22 0.00 96 1013.7
20260904054551 23 0 0.0 3.2 0.00 1.22 0.00 96 1013.9
20260904054023 23 0 0.0 3.2 0.00 1.22 0.00 96 1013.9
20260904053522 23 0 0.0 3.2 0.00 1.22 0.00 96 1013.8
20260904053055 23 0 0.0 0.0 0.00 1.22 0.00 96 1013.9
20260904052523 23 0 0.0 0.0 0.00 1.22 0.00 96 1013.9
20260904052022 23 0 0.0 0.0 0.00 1.22 0.00 96 1014.0
20260904051544 23 0 0.0 0.0 0.00 1.22 0.00 96 1014.0
20260904051023 23 0 0.0 0.0 0.00 1.22 0.00 96 1013.9
20260904050521 23 0 0.0 0.0 0.00 1.22 0.00 96 1014.1
20260904050049 23 0 0.0 0.0 0.00 1.22 0.00 96 1014.1
20260904045525 23 0 0.0 0.0 0.00 1.24 0.00 96 1014.1
20260904045025 23 0 0.0 0.0 0.00 1.24 0.00 96 1014.1
20260904044546 23 0 0.0 0.0 0.00 1.24 0.00 96 1014.1
20260904044023 23 0 0.0 0.0 0.00 1.24 0.00 96 1014.1
20260904043519 23 0 0.0 0.0 0.00 1.24 0.00 96 1014.1
20260904043056 23 0 0.0 0.0 0.00 1.24 0.00 96 1014.1
20260904042525 23 0 0.0 0.0 0.00 1.24 0.00 96 1014.1
20260904042024 23 0 0.0 0.0 0.00 1.24 0.00 96 1014.1
20260904041546 23 0 0.0 0.0 0.00 1.24 0.00 96 1014.2
20260904041021 23 0 0.0 0.0 0.00 1.24 0.00 96 1014.1
20260904040522 23 0 0.0 3.2 0.00 1.24 0.00 96 1014.1
20260904035525 23 0 0.0 4.8 0.00 1.24 1.24 96 1014.1
20260904035022 23 101 1.6 4.8 0.00 1.24 1.24 96 1013.9
20260904034541 23 99 1.6 4.8 0.00 1.24 1.24 96 1014.0
20260904034019 23 109 1.6 4.8 0.00 1.24 1.24 96 1014.1
20260904033520 24 102 0.0 4.8 0.00 1.24 1.24 96 1014.1
20260904033044 24 0 0.0 0.0 0.00 1.24 1.24 96 1014.1
20260904032523 24 0 0.0 0.0 0.00 1.24 1.24 96 1014.1
20260904032021 24 0 0.0 1.6 0.00 1.24 1.24 96 1014.1
20260904031552 24 0 0.0 3.2 0.00 1.24 1.24 96 1014.1
20260904031024 24 0 0.0 3.2 0.00 1.24 1.24 96 1014.2
20260904030524 24 0 0.0 3.2 0.00 1.24 1.24 96 1014.2
20260904030043 24 0 0.0 4.8 0.00 1.24 1.24 96 1014.1
20260904025524 24 118 1.6 4.8 0.00 1.24 1.24 96 1014.1
20260904025022 24 136 1.6 4.8 0.00 1.24 1.24 96 1014.1
20260904024554 24 101 1.6 4.8 0.00 1.24 1.24 96 1014.1
20260904024018 24 107 1.6 8.0 0.00 1.24 1.24 96 1014.1
20260904023524 24 128 3.2 8.0 0.03 1.24 1.24 96 1014.0
20260904023049 24 121 3.2 6.4 0.03 1.24 1.24 96 1014.0
20260904022525 24 96 3.2 8.0 0.03 1.24 1.24 96 1013.9
20260904022024 24 0 1.6 8.0 0.03 1.24 1.24 96 1013.9
20260904021547 24 119 3.2 8.0 0.03 1.24 1.24 96 1013.8
20260904021024 24 115 1.6 4.8 0.03 1.24 1.24 96 1013.9
20260904020524 24 74 1.6 4.8 0.03 1.24 1.24 96 1013.8
20260904020046 24 82 1.6 4.8 0.03 1.24 1.24 96 1013.7
20260904015524 24 108 1.6 4.8 0.05 1.32 1.24 96 1013.8
20260904015022 24 0 1.6 6.4 0.05 1.32 1.24 96 1013.7
20260904014557 24 109 1.6 6.4 0.08 1.32 1.24 96 1013.7
20260904014025 24 108 1.6 4.8 0.08 1.32 1.24 96 1013.7
20260904013525 24 120 0.0 4.8 0.08 1.30 1.22 96 1013.7
20260904013048 24 76 1.6 4.8 0.08 1.30 1.22 96 1013.7
20260904012524 24 69 1.6 4.8 0.08 1.30 1.22 96 1013.7
20260904012024 24 91 1.6 6.4 0.08 1.30 1.22 96 1013.6
20260904011546 24 65 3.2 6.4 0.08 1.30 1.22 95 1013.4
20260904011024 24 93 3.2 4.8 0.10 1.30 1.22 95 1013.4
20260904010524 24 98 1.6 4.8 0.13 1.30 1.22 95 1013.4
20260904010050 24 98 1.6 4.8 0.15 1.30 1.22 95 1013.4
20260904005523 24 79 1.6 4.8 0.28 1.27 1.19 95 1013.3
20260904005024 24 0 0.0 3.2 0.53 1.24 1.17 95 1013.3
20260904004544 25 0 0.0 1.6 0.76 1.24 1.17 95 1013.4
20260904004023 24 0 0.0 1.6 1.14 1.24 1.17 95 1013.4
20260904003520 24 0 0.0 4.8 1.12 1.22 1.14 95 1013.4
20260904003043 24 89 0.0 6.4 1.12 1.22 1.14 95 1013.3
20260904002524 24 109 1.6 6.4 1.12 1.22 1.14 95 1013.4
20260904002026 24 123 0.0 11.3 1.12 1.22 1.14 95 1013.5
20260904001551 24 100 1.6 11.3 1.09 1.19 1.12 94 1013.5
20260904001024 24 116 3.2 11.3 1.09 1.19 1.12 94 1013.6
20260904000524 24 155 3.2 16.1 1.07 1.17 1.09 94 1013.6
20260904000052 24 202 6.4 16.1 1.02 1.12 1.04 93 1013.6
20260903235526 25 142 4.8 16.1 0.86 0.97 0.89 92 1013.7
20260903235024 25 167 1.6 16.1 0.58 0.69 0.61 91 1013.8
20260903234541 26 301 3.2 29.0 0.33 0.43 0.36 89 1013.8
20260903234025 27 104 14.5 29.0 0.00 0.10 0.03 85 1013.8
20260903233529 27 132 9.7 20.9 0.00 0.10 0.03 85 1013.7
20260903233041 28 80 4.8 12.9 0.00 0.10 0.03 87 1013.3
20260903232524 28 112 4.8 14.5 0.00 0.10 0.03 86 1013.2
20260903232024 28 78 4.8 16.1 0.00 0.10 0.03 85 1013.1
20260903231548 28 84 6.4 16.1 0.00 0.10 0.03 85 1013.0
20260903231024 28 83 8.0 14.5 0.00 0.10 0.03 85 1013.0
20260903230521 28 80 6.4 14.5 0.00 0.10 0.03 85 1013.1
20260903230047 28 115 4.8 11.3 0.00 0.10 0.03 84 1013.1
20260903225524 28 67 6.4 12.9 0.00 0.10 0.03 83 1013.0
20260903225024 28 61 6.4 12.9 0.00 0.10 0.03 82 1012.8
20260903224540 29 114 4.8 12.9 0.00 0.10 0.03 82 1012.8
20260903224024 29 83 4.8 11.3 0.00 0.10 0.03 80 1012.5
20260903223524 29 78 3.2 6.4 0.00 0.10 0.03 79 1012.7
20260903223043 30 82 1.6 6.4 0.00 0.10 0.03 79 1012.7
20260903222522 30 74 1.6 6.4 0.00 0.10 0.03 78 1012.7
20260903222024 30 55 3.2 6.4 0.00 0.10 0.03 77 1012.5
20260903221542 30 64 1.6 6.4 0.00 0.10 0.03 79 1012.4
20260903221018 30 67 1.6 6.4 0.00 0.10 0.03 77 1012.4
20260903220524 30 59 1.6 6.4 0.00 0.10 0.03 77 1012.4
20260903220051 30 71 3.2 6.4 0.00 0.10 0.03 76 1012.4
20260903215525 30 77 3.2 8.0 0.00 0.10 0.03 77 1012.2
20260903215025 30 82 3.2 8.0 0.00 0.10 0.03 79 1012.4
20260903214604 30 59 3.2 9.7 0.00 0.10 0.03 79 1012.4
20260903214024 30 69 3.2 12.9 0.00 0.10 0.03 79 1012.3
20260903213523 30 63 4.8 12.9 0.00 0.10 0.03 79 1012.1
20260903213047 30 56 4.8 12.9 0.00 0.10 0.03 79 1011.8
20260903212528 30 112 6.4 12.9 0.00 0.10 0.03 78 1011.8
20260903212024 30 53 4.8 12.9 0.00 0.10 0.03 78 1011.8
20260903211542 30 76 6.4 12.9 0.00 0.10 0.03 76 1011.8
20260903211025 30 38 4.8 11.3 0.00 0.10 0.03 79 1011.8
20260903210525 30 88 3.2 9.7 0.00 0.10 0.03 79 1011.6
20260903210048 30 96 1.6 9.7 0.00 0.10 0.03 79 1011.7
20260903205523 30 99 4.8 8.0 0.00 0.10 0.03 79 1011.8
20260903205022 30 72 3.2 6.4 0.00 0.10 0.03 81 1011.9
20260903204542 30 59 3.2 9.7 0.00 0.10 0.03 81 1012.0
20260903204023 30 74 1.6 11.3 0.00 0.10 0.03 82 1012.1
20260903203526 30 0 3.2 11.3 0.00 0.10 0.03 82 1011.9
20260903203042 30 121 3.2 8.0 0.00 0.10 0.03 80 1011.9
20260903202526 30 98 3.2 6.4 0.00 0.10 0.03 85 1012.1
20260903202023 29 107 3.2 9.7 0.00 0.10 0.03 83 1012.3
20260903201558 29 105 4.8 9.7 0.00 0.10 0.03 84 1012.4
20260903201027 29 101 3.2 8.0 0.00 0.10 0.03 84 1012.5
20260903200526 28 113 3.2 12.9 0.00 0.10 0.03 85 1012.4
20260903200051 28 110 4.8 12.9 0.00 0.10 0.03 86 1012.6
20260903195523 28 109 6.4 11.3 0.00 0.10 0.03 85 1012.7
20260903195029 28 65 4.8 11.3 0.00 0.10 0.03 85 1012.7
20260903194542 28 123 3.2 12.9 0.00 0.10 0.03 87 1012.8
20260903194023 28 55 6.4 14.5 0.00 0.10 0.03 88 1013.0
20260903193525 28 78 8.0 14.5 0.00 0.10 0.03 87 1013.1
20260903193049 28 91 4.8 11.3 0.00 0.10 0.03 90 1013.3
20260903192530 28 82 4.8 11.3 0.00 0.10 0.03 90 1013.3
20260903192025 28 40 4.8 11.3 0.00 0.10 0.03 89 1013.6
20260903191549 27 95 4.8 11.3 0.00 0.10 0.03 89 1013.6
20260903191024 28 83 3.2 11.3 0.00 0.10 0.03 89 1013.6
20260903190524 27 100 4.8 9.7 0.00 0.10 0.03 92 1013.7
20260903190044 27 83 3.2 9.7 0.00 0.10 0.03 92 1013.8
20260903185522 26 94 3.2 11.3 0.00 0.10 0.03 92 1013.7
20260903185024 26 104 4.8 11.3 0.00 0.10 0.03 91 1013.7
20260903184551 26 157 4.8 12.9 0.00 0.10 0.03 90 1013.7
20260903184027 26 115 3.2 12.9 0.00 0.10 0.03 90 1013.6
20260903183524 26 124 4.8 16.1 0.00 0.10 0.03 89 1013.6
20260903183050 26 137 3.2 16.1 0.00 0.10 0.03 88 1013.6
20260903182524 27 154 6.4 16.1 0.00 0.10 0.03 88 1013.7
20260903182025 27 107 4.8 9.7 0.00 0.10 0.03 89 1013.6
20260903181547 27 92 3.2 11.3 0.00 0.10 0.03 89 1013.6
20260903181026 27 79 3.2 11.3 0.00 0.10 0.03 88 1013.6
20260903180529 27 80 6.4 11.3 0.00 0.10 0.03 88 1013.5
20260903180047 27 74 3.2 8.0 0.00 0.10 0.03 87 1013.6
20260903175520 27 80 3.2 12.9 0.00 0.10 0.03 87 1013.7
20260903175023 27 96 3.2 12.9 0.00 0.10 0.03 87 1013.8
20260903174542 27 98 3.2 12.9 0.00 0.10 0.03 87 1014.0
20260903174022 27 121 4.8 12.9 0.00 0.10 0.03 86 1014.2
20260903173525 27 119 6.4 12.9 0.00 0.10 0.03 86 1014.3
20260903173043 28 109 4.8 9.7 0.00 0.10 0.03 87 1014.4